Regional Weather Roundup
Issued by NWS

Home | Current Version | Previous Version | Text Only | Print | Product List | Glossary On
Versions: 1 2 3 4 5 6 7 8 9 10 11 12 13 14 15 16 17 18 19 20 21 22 23 24 25 26 27 28 29 30 31 32 33 34 35 36 37 38 39 40 41 42 43 44 45 46 47 48 49 50
274
ASUS43 KFSD 240502
RWRSD

WEATHER ROUNDUP FOR SOUTH DAKOTA
NATIONAL WEATHER SERVICE SIOUX FALLS SD
1200 AM CDT MON APR 24 2017

NOTE: "FAIR" INDICATES FEW OR NO CLOUDS BELOW 12,000 FEET WITH NO
SIGNIFICANT WEATHER AND/OR OBSTRUCTIONS TO VISIBILITY.


SDZ001>005-009-010-012>017-240600-
NORTHWEST AND NORTH CENTRAL SOUTH DAKOTA

CITY           SKY/WX    TMP DP  RH WIND       PRES   REMARKS
BUFFALO          N/A     38  36  92 E20       29.61R
FAITH            N/A     35  35 100 NE26      29.62F WCI  22
MOBRIDGE       CLOUDY    39  32  76 NE13      29.66F
$$

SDZ012>016-024>037-041>051-057-063-072>074-240600-
SOUTHWEST AND SOUTH CENTRAL SOUTH DAKOTA

CITY           SKY/WX    TMP DP  RH WIND       PRES   REMARKS
RAPID CTY ARPT LGT RAIN  50  42  74 N18       29.66R
PIERRE         CLOUDY    48  41  76 N7        29.57F
CUSTER         CLOUDY    48  38  68 N6        29.67F
ELLSWORTH AFB  LGT RAIN  49  44  81 NE16      29.66
PHILIP         CLOUDY    46  41  82 NE10      29.59F
PINE RIDGE     CLOUDY    64  40  41 S15G28    29.55F
SPEARFISH      RAIN      50  48  93 S7        29.69F
WINNER         FAIR      62  31  31 S26G36    29.61F
$$

SDZ004>011-016>023-039-040-240600-
NORTHEAST SOUTH DAKOTA

CITY           SKY/WX    TMP DP  RH WIND       PRES   REMARKS
ABERDEEN       PTCLDY    45  37  73 NE15      29.67F
WATERTOWN      CLOUDY    53  34  48 SE12      29.70F
BROOKINGS      CLOUDY    56  32  40 S16       29.74F
SISSETON         N/A     45  38  76 SE10      29.76F
$$

SDZ017-020-022-023-036>040-048>070-240600-
SOUTHEAST SOUTH DAKOTA

CITY           SKY/WX    TMP DP  RH WIND       PRES   REMARKS
SIOUX FALLS    MOCLDY    58  33  39 S17       29.77F
HURON          CLOUDY    57  33  40 SE12      29.65F
CHAMBERLAIN    CLOUDY    63  32  31 SE18G28   29.62F
MITCHELL       CLOUDY    58  33  39 S17       29.69F
YANKTON        CLOUDY    57  28  33 S15       29.76F
$$

ABBREVIATIONS USED IN REMARKS
   TC - TEMPERATURE IN CELSIUS
  WCI - WIND CHILL INDEX
   HX - HEAT INDEX
  VSB - VISIBILITY





USA.gov is the U.S. government's official web portal to all federal, state and local government web resources and services.